Overview Statistics Trail Chart Weather Telemetry Raw packets
 

This is the latest recevied weather packets stored in our database for station/object HB9FHL-13. If no packets are shown the sender has not sent any weather packets the latest 10 day(s).

<< 117 118 119 120 121 122 123 >>
Time Temp. Humidity Pressure Rain* Wind** Luminosity Snow
1787929207 19.44° C - 1017.5 hPa 0.76 mm - - -
1787928912 18.33° C - 1015.7 hPa 0.76 mm - - -
1787928906 18.33° C - 1015.7 hPa 0.76 mm - - -
1787928606 18.89° C - 1018.4 hPa 0.76 mm - - -
1787928308 19.44° C - 1018.3 hPa 0.76 mm - - -
1787928305 19.44° C - 1018.3 hPa 0.76 mm - - -
1787928008 19.44° C - 1015.5 hPa 0.76 mm - - -
1787928005 19.44° C - 1015.5 hPa 0.76 mm - - -
1787927702 19.44° C - 1017.8 hPa 0.76 mm - - -
1787927401 18.89° C - 1016.2 hPa 0.76 mm - - -
1787927105 19.44° C - 1015 hPa 0.76 mm - - -
1787927101 19.44° C - 1015 hPa 0.76 mm - - -
1787926942 19.44° C - 1016.7 hPa 0.76 mm - - -
1787926800 19.44° C - 1016.7 hPa 0.76 mm - - -
1787926500 18.89° C - 1018.5 hPa 0.76 mm - - -
1787926274 19.44° C - 1016.7 hPa 0.76 mm - - -
1787926203 19.44° C - 1016.7 hPa 0.76 mm - - -
1787926199 19.44° C - 1016.7 hPa 0.76 mm - - -
1787925935 18.89° C - 1015.6 hPa 0.76 mm - - -
1787925902 18.89° C - 1015.6 hPa 0.76 mm - - -
1787925897 18.89° C - 1015.6 hPa 0.76 mm - - -
1787925599 18.33° C - 1018.9 hPa 0.76 mm - - -
1787925596 18.33° C - 1018.9 hPa 0.76 mm - - -
1787925300 18.89° C - 1018.4 hPa 0.76 mm - - -
1787925296 18.89° C - 1018.4 hPa 0.76 mm - - -

* Rain since midnight (hover to see other rain measurements)
** Current wind speed in m/s (hover to see current wind gust speed)